Weather History for Spirit of St Louis, MO

Change the Weather History Date:

Saturday, August 3, 2013

  Actual Average Record
Temperature  
Mean Temperature 76 °F -  
Max Temperature 86 °F 86 °F 100 °F (2005)
Min Temperature 66 °F 63 °F 57 °F (2014)
Cooling Degree Days 12    
Growing Degree Days 26 (Base 50)    
Moisture  
Dew Point 69 °F    
Average Humidity 85    
Maximum Humidity 100    
Minimum Humidity 51    
Precipitation  
Precipitation 0.00 in - - ()
Sea Level Pressure  
Sea Level Pressure 29.99 in    
Wind  
Wind Speed 2 mph (North)    
Max Wind Speed 10 mph    
Max Gust Speed -    
Visibility 6 miles    
Events Fog    
Averages and records for this station are not official NWS values.
T = Trace of Precipitation, MM = Missing Value Source: NWS Daily Summary

Daily Weather History Graph

Daily Weather History Graph

Search for Another Location

Airport:

Trip Planner

Search our weather history database for the weather conditions in past years. The results will help you decide how hot, cold, wet, or windy it might be!

Date:

Astronomy

Aug. 03, 2013 Rise Set
Actual Time 6:06 AM CDT 8:10 PM CDT
Civil Twilight 5:36 AM CDT 8:40 PM CDT
Nautical Twilight 5:00 AM CDT 9:15 PM CDT
Astronomical Twilight 4:21 AM CDT 9:54 PM CDT
Moon 3:16 AM CDT (8/3) 5:53 PM CDT (8/3)
Length of Visible Light 15h 03m
Length of Day
14h 04m
Waning Crescent, 9% of the Moon is Illuminated
Aug 3
Waning Crescent
Aug 6
New
Aug 14
First Quarter
Aug 20
Full
Aug 28
Last Quarter

Hourly Weather History & Observations

Time (CDT) Temp. Heat Index Dew Point Humidity Pressure Visibility Wind Dir Wind Speed Gust Speed Precip Events Conditions
12:01 AM 71.6 °F - 69.8 °F 94% 29.94 in 4.0 mi Calm Calm - N/A   Mostly Cloudy
12:54 AM 71.1 °F - 69.1 °F 93% 29.93 in 3.0 mi Calm Calm - N/A   Partly Cloudy
12:59 AM 69.8 °F - 69.8 °F 100% 29.95 in 1.8 mi Calm Calm - N/A   Scattered Clouds
1:15 AM 71.6 °F - 69.8 °F 94% 29.95 in 2.5 mi Calm Calm - N/A   Mostly Cloudy
1:54 AM 71.1 °F - 70.0 °F 96% 29.92 in 2.0 mi Calm Calm - N/A   Overcast
2:10 AM 71.6 °F - 69.8 °F 94% 29.94 in 0.8 mi Calm Calm - N/A   Mostly Cloudy
2:24 AM 69.8 °F - 69.8 °F 100% 29.94 in 0.2 mi Calm Calm - N/A Fog Fog
2:36 AM 69.8 °F - 69.8 °F 100% 29.94 in 0.2 mi Calm Calm - N/A Fog Fog
2:42 AM 69.8 °F - 68.0 °F 94% 29.94 in 0.2 mi Calm Calm - N/A Fog Fog
2:54 AM 69.1 °F - 69.1 °F 100% 29.92 in 0.2 mi Calm Calm - N/A Fog Fog
3:06 AM 69.8 °F - 69.8 °F 100% 29.93 in 1.0 mi Calm Calm - N/A   Overcast
3:15 AM 69.8 °F - 69.8 °F 100% 29.93 in 2.5 mi Calm Calm - N/A   Overcast
3:54 AM 71.1 °F - 70.0 °F 96% 29.92 in 3.0 mi Calm Calm - N/A   Overcast
4:27 AM 71.6 °F - 69.8 °F 94% 29.94 in 3.0 mi North 4.6 mph - N/A   Overcast
4:36 AM 71.6 °F - 69.8 °F 94% 29.94 in 3.0 mi Calm Calm - N/A   Overcast
4:54 AM 71.1 °F - 70.0 °F 96% 29.93 in 3.0 mi North 4.6 mph - N/A   Overcast
5:12 AM 71.6 °F - 69.8 °F 94% 29.95 in 1.8 mi NNE 8.1 mph - N/A   Overcast
5:27 AM 71.6 °F - 69.8 °F 94% 29.96 in 2.5 mi Variable 6.9 mph - N/A   Overcast
5:34 AM 71.6 °F - 69.8 °F 94% 29.97 in 4.0 mi North 4.6 mph - N/A   Overcast
5:54 AM 72.0 °F - 70.0 °F 93% 29.95 in 5.0 mi North 5.8 mph - N/A   Overcast
6:54 AM 72.0 °F - 69.1 °F 91% 29.96 in 5.0 mi North 4.6 mph - N/A   Overcast
7:54 AM 72.0 °F - 69.1 °F 91% 29.99 in 6.0 mi North 3.5 mph - N/A   Overcast
8:51 AM 73.4 °F - 69.8 °F 88% 30.03 in 8.0 mi Calm Calm - N/A   Overcast
8:54 AM 73.0 °F - 68.0 °F 84% 30.02 in 9.0 mi Calm Calm - N/A   Overcast
9:16 AM 73.4 °F - 68.0 °F 83% 30.04 in 10.0 mi Variable 4.6 mph - N/A   Overcast
9:54 AM 75.0 °F - 68.0 °F 79% 30.03 in 10.0 mi Calm Calm - N/A   Mostly Cloudy
10:54 AM 75.0 °F - 68.0 °F 79% 30.04 in 10.0 mi WNW 3.5 mph - N/A   Mostly Cloudy
11:54 AM 77.0 °F - 69.1 °F 76% 30.04 in 10.0 mi Calm Calm - N/A   Mostly Cloudy
12:54 PM 81.0 °F 84.4 °F 70.0 °F 69% 30.03 in 10.0 mi Variable 4.6 mph - N/A   Scattered Clouds
1:54 PM 82.9 °F 86.5 °F 69.1 °F 63% 30.02 in 10.0 mi Variable 5.8 mph - N/A   Mostly Cloudy
2:54 PM 84.9 °F 88.8 °F 69.1 °F 59% 30.02 in 10.0 mi NNE 9.2 mph - N/A   Scattered Clouds
3:54 PM 84.9 °F 88.8 °F 69.1 °F 59% 30.01 in 10.0 mi NE 10.4 mph - N/A   Scattered Clouds
4:54 PM 84.9 °F 86.6 °F 64.9 °F 51% 30.02 in 10.0 mi NNE 9.2 mph - N/A   Scattered Clouds
5:54 PM 82.9 °F 85.8 °F 68.0 °F 60% 30.03 in 10.0 mi North 9.2 mph - N/A   Scattered Clouds
6:54 PM 82.0 °F 83.8 °F 64.9 °F 56% 30.02 in 10.0 mi North 5.8 mph - N/A   Partly Cloudy
7:54 PM 79.0 °F - 64.9 °F 62% 30.03 in 10.0 mi NNE 5.8 mph - N/A   Clear
8:54 PM 77.0 °F - 63.0 °F 62% 30.05 in 10.0 mi NE 4.6 mph - N/A   Partly Cloudy
9:54 PM 71.1 °F - 64.9 °F 81% 30.08 in 10.0 mi Calm Calm - N/A   Clear
10:54 PM 69.1 °F - 64.9 °F 87% 30.09 in 10.0 mi Calm Calm - N/A   Clear
11:54 PM 66.9 °F - 64.9 °F 93% 30.11 in 10.0 mi Calm Calm - N/A   Clear